FW4808 Weather Reports


time (UTC)temp
C
wind
direction
speed
KPH
gust
KPH
rain 1hr
cm
rain 24hr
cm
rain mn
cm
humidity
%
barometer
mb
20260504082004 8 0 0.0 0.0 0.00 0.00 0.00 55 1014.5
20260504081504 7 0 0.0 0.0 0.00 0.00 0.00 54 1014.5
20260504081004 7 0 0.0 0.0 0.00 0.00 0.00 53 1014.5
20260504080503 7 0 0.0 0.0 0.00 0.00 0.00 53 1014.5
20260504060218 6 0 0.0 0.0 0.00 0.00 0.00 59 1014.8
20260504050503 6 0 0.0 0.0 0.00 0.00 0.00 63 1015.0
20260504050003 7 0 0.0 0.0 0.00 0.00 0.00 63 1015.0
20260504045503 7 0 0.0 0.0 0.00 0.00 0.00 63 1015.0
20260504045003 7 0 0.0 0.0 0.00 0.00 0.00 63 1014.9
20260504044504 7 0 0.0 0.0 0.00 0.00 0.00 62 1014.9
20260504044003 7 0 0.0 0.0 0.00 0.00 0.00 61 1015.0
20260504043503 7 0 0.0 0.0 0.00 0.00 0.00 58 1014.9
20260504043003 7 0 0.0 0.0 0.00 0.00 0.00 58 1014.8
20260504042503 7 0 0.0 0.0 0.00 0.00 0.00 59 1014.8
20260504042003 7 0 0.0 0.0 0.00 0.00 0.00 62 1014.8
20260504041504 7 0 0.0 0.0 0.00 0.00 0.00 62 1014.8
20260504041003 7 0 0.0 0.0 0.00 0.00 0.00 60 1014.8
20260504040503 7 0 0.0 0.0 0.00 0.00 0.00 58 1014.7
20260504040004 7 0 0.0 0.0 0.00 0.00 0.00 57 1014.6
20260504035503 7 0 0.0 0.0 0.00 0.00 0.00 56 1014.6
20260504035003 7 0 0.0 0.0 0.00 0.00 0.00 58 1014.6
20260504034504 7 0 0.0 0.0 0.00 0.00 0.00 60 1014.6
20260504034003 7 0 0.0 0.0 0.00 0.00 0.00 59 1014.6
20260504033503 7 0 0.0 0.0 0.00 0.00 0.00 59 1014.7
20260504033003 7 0 0.0 0.0 0.00 0.00 0.00 61 1014.7
20260504032503 7 0 0.0 0.0 0.00 0.00 0.00 61 1014.8
20260504032003 7 0 0.0 0.0 0.00 0.00 0.00 60 1014.8
20260504031503 8 0 0.0 0.0 0.00 0.00 0.00 58 1014.6
20260504031217 8 0 0.0 0.0 0.00 0.00 0.00 58 1014.6
20260504030504 8 0 0.0 0.0 0.00 0.00 0.00 57 1014.5
20260504030003 8 0 0.0 0.0 0.00 0.00 0.00 58 1014.5
20260504025503 8 0 0.0 0.0 0.00 0.00 0.00 57 1014.5
20260504025003 8 0 0.0 0.0 0.00 0.00 0.00 57 1014.5
20260504024718 8 0 0.0 0.0 0.00 0.00 0.00 56 1014.5
20260504024217 8 0 0.0 0.0 0.00 0.00 0.00 56 1014.5
20260504023503 8 0 0.0 0.0 0.00 0.00 0.00 55 1014.5
20260504023004 8 0 0.0 0.0 0.00 0.00 0.00 54 1014.5
20260504022503 9 0 0.0 0.0 0.00 0.00 0.00 54 1014.5
20260504022003 9 0 0.0 0.0 0.00 0.00 0.00 54 1014.4
20260504021718 9 0 0.0 0.0 0.00 0.00 0.00 54 1014.4
20260504021003 10 0 0.0 0.0 0.00 0.00 0.00 54 1014.4
20260504020718 10 0 0.0 0.0 0.00 0.00 0.00 53 1014.4
20260504020004 10 0 0.0 0.0 0.00 0.00 0.00 49 1014.3
20260504015503 10 0 0.0 0.0 0.00 0.00 0.00 48 1014.2
20260504015003 10 0 0.0 0.0 0.00 0.00 0.00 50 1014.3
20260504014503 10 0 0.0 0.0 0.00 0.00 0.00 51 1014.3
20260504014003 10 0 0.0 0.0 0.00 0.00 0.00 50 1014.2
20260504013503 10 0 0.0 0.0 0.00 0.00 0.00 49 1014.2
20260504013003 10 0 0.0 0.0 0.00 0.00 0.00 47 1014.2
20260504012503 11 0 0.0 0.0 0.00 0.00 0.00 46 1014.1
20260504012003 11 0 0.0 0.0 0.00 0.00 0.00 46 1014.1
20260504011503 11 0 0.0 0.0 0.00 0.00 0.00 47 1014.0
20260504011003 11 0 0.0 0.0 0.00 0.00 0.00 44 1014.0
20260504010503 11 0 0.0 0.0 0.00 0.00 0.00 43 1014.0
20260504010003 11 0 0.0 0.0 0.00 0.00 0.00 43 1013.9
20260504005503 12 0 0.0 0.0 0.00 0.00 0.00 42 1013.9
20260504005004 12 0 0.0 0.0 0.00 0.00 0.00 41 1013.9
20260504004504 12 0 0.0 0.0 0.00 0.00 0.00 40 1013.9
20260504004003 12 269 0.0 1.6 0.00 0.00 0.00 39 1013.8
20260504003504 12 270 1.6 8.0 0.00 0.00 0.00 39 1013.8
20260504003003 12 270 1.6 9.7 0.00 0.00 0.00 39 1013.7
20260504002503 12 268 1.6 9.7 0.00 0.00 0.00 39 1013.6
20260504002218 12 266 0.0 6.4 0.00 0.00 0.00 39 1013.6
20260504001503 12 255 0.0 1.6 0.00 0.00 0.00 38 1013.6
20260504001003 13 0 0.0 0.0 0.00 0.00 0.00 38 1013.7
20260504000504 13 268 0.0 1.6 0.00 0.00 0.00 37 1013.6
20260504000004 13 272 0.0 3.2 0.00 0.00 0.00 37 1013.6
20260503235503 13 276 0.0 3.2 0.00 0.00 0.00 37 1013.4
20260503235003 13 277 1.6 11.3 0.00 0.00 0.00 37 1013.4
20260503234503 13 274 1.6 11.3 0.00 0.00 0.00 36 1013.4
20260503234003 14 266 1.6 16.1 0.00 0.00 0.00 35 1013.3
20260503233503 14 270 4.8 16.1 0.00 0.00 0.00 35 1013.2
20260503233217 14 271 4.8 16.1 0.00 0.00 0.00 34 1013.3
20260503232503 14 278 1.6 14.5 0.00 0.00 0.00 34 1013.2
20260503232003 14 272 3.2 14.5 0.00 0.00 0.00 33 1013.0
20260503231503 15 269 3.2 11.3 0.00 0.00 0.00 34 1013.1
20260503231003 15 277 3.2 17.7 0.00 0.00 0.00 33 1013.0
20260503230718 15 279 3.2 17.7 0.00 0.00 0.00 33 1012.9
20260503230003 15 274 4.8 22.5 0.00 0.00 0.00 32 1013.0
20260503225503 15 272 4.8 22.5 0.00 0.00 0.00 32 1013.0
20260503225004 15 275 3.2 16.1 0.00 0.00 0.00 33 1013.0
20260503224503 15 282 6.4 16.1 0.00 0.00 0.00 32 1013.1
20260503224003 15 277 9.7 25.7 0.00 0.00 0.00 33 1013.1
20260503223718 15 272 9.7 25.7 0.00 0.00 0.00 33 1013.2
20260503223217 15 267 12.9 29.0 0.00 0.00 0.00 33 1013.2
20260503222503 15 274 9.7 29.0 0.00 0.00 0.00 32 1013.1
20260503222004 15 273 8.0 25.7 0.00 0.00 0.00 33 1013.2
20260503221504 15 271 6.4 25.7 0.00 0.00 0.00 32 1013.1
20260503221217 15 275 4.8 24.1 0.00 0.00 0.00 33 1013.1
20260503220503 15 282 8.0 22.5 0.00 0.00 0.00 33 1013.1
20260503220003 15 270 8.0 27.4 0.00 0.00 0.00 33 1013.1
20260503215503 15 272 8.0 27.4 0.00 0.00 0.00 33 1013.2
20260503215003 15 279 9.7 27.4 0.00 0.00 0.00 33 1013.3
20260503214503 15 275 9.7 27.4 0.00 0.00 0.00 33 1013.3
20260503214004 15 276 6.4 22.5 0.00 0.00 0.00 33 1013.2
20260503213503 15 282 4.8 19.3 0.00 0.00 0.00 32 1013.2
20260503213003 15 274 3.2 16.1 0.00 0.00 0.00 33 1013.1
20260503212504 15 263 4.8 17.7 0.00 0.00 0.00 33 1013.1
20260503212003 15 274 4.8 25.7 0.00 0.00 0.00 33 1013.2
20260503211503 15 278 6.4 25.7 0.00 0.00 0.00 32 1013.2
20260503211003 15 271 4.8 22.5 0.00 0.00 0.00 32 1013.2
20260503210718 15 280 3.2 20.9 0.00 0.00 0.00 32 1013.2
20260503210003 15 277 4.8 20.9 0.00 0.00 0.00 33 1013.2
20260503205504 15 266 6.4 22.5 0.00 0.00 0.00 33 1013.2
20260503205003 15 267 9.7 24.1 0.00 0.00 0.00 32 1013.1
20260503204503 15 271 8.0 24.1 0.00 0.00 0.00 32 1013.1
20260503204003 15 277 6.4 24.1 0.00 0.00 0.00 32 1013.1
20260503203718 15 278 6.4 17.7 0.00 0.00 0.00 32 1013.1
20260503203003 15 280 8.0 32.2 0.00 0.00 0.00 32 1013.2
20260503202717 15 281 8.0 32.2 0.00 0.00 0.00 32 1013.3
20260503202003 15 272 11.3 32.2 0.00 0.00 0.00 32 1013.4
20260503201503 15 266 9.7 32.2 0.00 0.00 0.00 31 1013.4
20260503201004 15 262 8.0 25.7 0.00 0.00 0.00 32 1013.4
20260503200503 15 265 12.9 27.4 0.00 0.00 0.00 32 1013.3
20260503200003 15 271 11.3 27.4 0.00 0.00 0.00 31 1013.5
20260503195504 15 273 8.0 25.7 0.00 0.00 0.00 32 1013.6
20260503195003 15 277 6.4 16.1 0.00 0.00 0.00 33 1013.6
20260503194503 15 272 6.4 22.5 0.00 0.00 0.00 32 1013.7
20260503194003 15 266 6.4 22.5 0.00 0.00 0.00 32 1013.8
20260503193503 15 269 4.8 16.1 0.00 0.00 0.00 33 1013.8
20260503193003 14 269 9.7 27.4 0.00 0.00 0.00 32 1013.9
20260503192503 14 266 11.3 27.4 0.00 0.00 0.00 32 1014.0
20260503192003 14 272 8.0 25.7 0.00 0.00 0.00 33 1014.1
20260503191503 14 281 8.0 25.7 0.00 0.00 0.00 33 1014.0
20260503191003 14 279 8.0 25.7 0.00 0.00 0.00 33 1014.1
20260503190503 14 274 8.0 25.7 0.00 0.00 0.00 33 1014.1
20260503190003 14 273 8.0 27.4 0.00 0.00 0.00 33 1014.2
20260503185503 14 270 8.0 27.4 0.00 0.00 0.00 32 1014.2
20260503185003 13 273 8.0 27.4 0.00 0.00 0.00 33 1014.2
20260503184503 13 272 9.7 27.4 0.00 0.00 0.00 33 1014.4
20260503184003 14 270 8.0 27.4 0.00 0.00 0.00 33 1014.5
20260503183503 14 278 8.0 27.4 0.00 0.00 0.00 35 1014.6
20260503183003 13 279 6.4 27.4 0.00 0.00 0.00 34 1014.7
20260503182504 13 281 9.7 38.6 0.00 0.00 0.00 33 1014.7
20260503182004 13 282 9.7 38.6 0.00 0.00 0.00 32 1014.8
20260503181504 13 279 9.7 29.0 0.00 0.00 0.00 35 1014.7
20260503181218 13 277 9.7 29.0 0.00 0.00 0.00 35 1014.7
20260503180503 13 274 8.0 27.4 0.00 0.00 0.00 36 1014.7
20260503180004 13 268 9.7 25.7 0.00 0.00 0.00 37 1014.7
20260503175504 13 267 11.3 30.6 0.00 0.00 0.00 37 1014.8
20260503175003 13 274 11.3 30.6 0.00 0.00 0.00 35 1014.9
20260503174503 13 280 9.7 30.6 0.00 0.00 0.00 35 1014.9
20260503174004 13 278 9.7 30.6 0.00 0.00 0.00 34 1014.9
20260503173718 13 276 9.7 30.6 0.00 0.00 0.00 34 1014.9
20260503173003 13 266 9.7 32.2 0.00 0.00 0.00 34 1014.8
20260503172718 13 267 8.0 32.2 0.00 0.00 0.00 34 1014.9
20260503172217 13 269 6.4 32.2 0.00 0.00 0.00 34 1014.9
20260503171503 13 270 8.0 17.7 0.00 0.00 0.00 35 1015.0
20260503171003 13 274 9.7 24.1 0.00 0.00 0.00 36 1015.0
20260503170504 13 276 9.7 25.7 0.00 0.00 0.00 35 1015.2
20260503151003 10 284 11.3 29.0 0.00 0.00 0.00 38 1015.8
20260503150504 10 281 11.3 29.0 0.00 0.00 0.00 38 1015.9
20260503150218 10 282 16.1 45.1 0.00 0.00 0.00 38 1015.8
20260503131003 6 284 8.0 24.1 0.00 0.00 0.00 55 1015.9
20260503130503 6 276 8.0 41.8 0.00 0.00 0.00 56 1015.9
20260503110503 3 272 6.4 14.5 0.00 0.00 0.00 75 1015.0